Hourly Data Report for September 10, 2017

All times are specified in Local Standard Time (LST). Add 1 hour to adjust for Daylight Saving Time where and when it is observed.

MISCOU ISLAND (AUT)
NEW BRUNSWICK

48°00'32.002" N
64°29'39.008" W
4.00 m
8103050
71719
WMI

Download Data

Hourly Data (September 2017)
Hourly Data Report for September 10, 2017
Temp Definition
°C
Dew Point Temp Definition
°C
Rel Hum Definition
%
Wind Dir Definition
10's deg

Wind Spd Definition
km/h
Visibility Definition
km
Stn Press Definition
kPa
Hmdx Definition


Wind Chill Definition


Weather Definition


TIME
00:00 12.6 11.4 92 36 11   102.45     LegendNANA
01:00 12.4 11.3 93 35 11   102.44     LegendNANA
02:00 12.3 11.0 92 36 7   102.41     LegendNANA
03:00 12.2 11.1 93 34 12   102.41     LegendNANA
04:00 12.3 11.0 92 33 15   102.40     LegendNANA
05:00 12.0 10.8 92 33 12   102.42     LegendNANA
06:00 11.9 10.6 92 34 9   102.46     LegendNANA
07:00 12.5 11.1 91 36 9   102.47     LegendNANA
08:00 13.1 11.1 88 35 7   102.46     LegendNANA
09:00 13.6 11.3 86 35 5   102.46     LegendNANA
10:00 14.0 11.1 82 36 5   102.40     LegendNANA
11:00 16.1 11.7 75 30 12   102.36     LegendNANA
12:00 17.6 10.6 63 22 9   102.30     LegendNANA
13:00 16.8 11.8 72 25 17   102.27     LegendNANA
14:00 16.6 11.1 70 25 14   102.20     LegendNANA
15:00 16.1 11.5 74 24 15   102.10     LegendNANA
16:00 15.8 12.7 82 28 6   102.06     LegendNANA
17:00 15.7 11.6 77 27 6   102.02     LegendNANA
18:00 14.6 11.6 83 27 8   101.99     LegendNANA
19:00 14.0 10.9 82 27 11   101.98     LegendNANA
20:00 14.0 10.2 78 26 14   101.94     LegendNANA
21:00 13.4 10.2 81 26 17   101.92     LegendNANA
22:00 12.8 10.8 88 26 13   101.90     LegendNANA
23:00 13.0 11.0 88 25 13   101.84     LegendNANA

Notes on Data Quality.

Legend

  • E = Estimated
  • M = Missing
  • NA = Not Available
  • ‡ = Partner data that is not subject to review by the National Climate Archives
Date modified: